Theta_e
331 332 336 332 330 329 325 318 303 307 305 300 298 300 298 305 302 301 301 302 300 304 305 304 304 305 306 304 306 307 304 306 308 302 303 310 314 312 312 313 314 316 317 320 323 327 332 331 332 333 334 335 336 337 337 338 339 339 340 341 342 342 344 344 344 344 345 346 346 347 347 347 348 347 347 348 347 347 347 346 346 346 346 347 347 349 349 348 348 349 349 349 348 348 349 349 349
329 331 330 330 328 325 317 312 306 301 302 298 299 300 301 303 302 301 301 301 304 304 306 306 305 306 306 306 308 308 306 307 306 309 309 312 311 311 311 311 312 313 316 319 322 326 328 329 329 330 332 333 333 334 335 336 336 337 338 339 340 340 340 341 342 343 343 343 345 345 346 346 346 347 347 347 346 347 346 346 346 346 346 347 347 348 348 348 347 347 347 347 347 347 347 348 348
329 329 328 328 325 322 318 312 302 301 299 296 299 300 301 301 301 303 304 304 305 306 306 306 306 305 304 304 303 303 304 307 308 309 309 312 309 308 310 311 311 313 316 318 321 325 326 327 328 329 331 331 332 333 333 334 334 334 336 337 337 337 338 339 340 341 341 341 342 342 343 345 345 345 346 345 346 345 345 345 345 345 345 346 346 347 347 347 347 347 346 347 347 346 346 346 346
331 331 328 325 317 318 312 307 304 301 299 298 298 301 300 302 302 304 304 306 306 305 305 302 303 304 304 302 304 304 306 307 310 309 308 309 310 309 309 309 309 313 316 317 319 323 323 325 326 328 329 330 330 331 331 332 332 333 333 334 334 334 335 337 338 338 338 338 339 339 339 340 342 342 342 342 342 341 342 344 344 344 344 345 345 346 346 347 347 346 346 345 346 345 345 346 346
329 327 329 324 320 311 310 306 303 301 297 299 298 302 302 304 304 303 303 305 304 304 303 304 304 303 304 303 305 304 306 308 309 310 310 311 309 308 308 310 309 311 313 314 317 321 321 322 324 326 327 328 329 329 329 330 331 331 331 332 331 332 333 334 334 334 334 334 335 335 336 337 337 337 337 336 336 337 338 339 341 340 341 341 342 343 345 346 346 346 346 345 345 346 345 345 345
325 323 324 324 315 310 306 301 300 299 303 303 300 301 303 304 304 303 303 304 303 302 302 303 303 302 302 304 304 305 309 306 310 309 310 309 309 308 308 308 307 308 310 312 315 318 320 321 324 325 326 327 328 328 328 328 328 328 329 329 329 330 330 331 331 331 331 331 332 332 332 333 333 332 332 331 331 332 334 335 336 336 336 337 338 340 342 344 346 346 345 345 345 345 343 343 344
320 318 316 314 310 310 304 302 301 301 302 302 302 302 304 304 304 304 302 301 302 302 303 302 302 303 302 303 303 305 306 306 309 309 311 310 309 307 307 305 306 305 307 309 312 316 317 318 322 323 324 324 325 326 326 326 327 326 326 326 326 327 328 328 328 328 328 328 328 329 329 329 329 329 328 328 328 329 330 331 331 332 332 332 333 336 338 342 345 343 341 341 342 344 341 341 342
321 318 315 309 306 305 302 302 302 302 301 300 301 302 304 304 304 304 302 302 301 300 302 302 303 302 302 303 303 303 305 307 309 310 308 307 308 307 307 305 304 303 304 306 310 313 314 315 318 320 321 323 323 324 324 324 324 325 324 323 324 324 324 325 325 324 324 324 325 325 325 326 326 326 325 325 325 326 327 328 329 329 329 329 330 332 334 337 338 338 337 337 337 337 337 339 341
318 315 312 309 303 303 301 300 302 300 301 300 301 302 306 304 304 304 302 304 302 303 302 302 303 299 302 301 304 304 305 307 307 308 308 307 307 306 306 305 303 304 305 305 306 309 312 312 314 317 319 320 321 322 322 322 322 322 322 322 322 322 323 323 323 322 321 321 322 323 323 323 323 323 323 323 322 323 325 326 326 326 327 327 327 329 330 331 332 333 333 334 335 334 334 334 335
313 312 308 307 307 300 300 300 298 301 302 302 302 301 302 302 303 305 304 302 302 302 303 304 303 301 301 302 303 303 306 307 307 306 306 306 306 305 304 305 306 305 304 304 305 306 307 308 310 312 315 317 318 319 320 320 320 320 320 320 320 320 321 321 321 320 319 319 320 320 321 321 321 322 321 321 320 321 323 324 324 324 324 325 325 326 326 327 329 330 330 331 332 332 331 330 330
308 310 311 306 302 300 300 300 301 301 301 301 301 302 303 302 303 302 304 304 303 302 300 302 299 300 301 302 304 304 307 306 305 303 304 305 305 304 303 304 306 305 304 306 305 305 305 306 306 308 310 313 315 316 317 318 318 318 318 318 317 317 317 318 318 318 317 317 317 317 318 318 318 318 318 318 318 318 320 321 321 321 321 322 323 323 324 324 325 327 328 329 329 329 329 327 326
306 308 308 303 301 300 301 300 302 302 300 301 301 302 302 302 302 301 302 301 301 301 301 301 302 304 300 301 304 303 304 304 305 305 304 305 303 303 303 303 304 304 305 304 304 305 305 306 306 305 306 307 311 312 313 314 314 315 315 315 315 315 315 316 316 315 315 314 314 314 314 315 315 316 316 316 316 316 317 318 319 319 318 319 320 320 321 321 322 323 324 326 326 326 325 324 323
309 309 306 302 301 301 301 298 301 300 301 300 302 300 302 302 301 303 303 303 302 301 301 303 303 303 301 302 302 301 301 304 305 304 303 302 303 303 303 302 303 303 303 304 304 304 305 304 304 304 304 304 305 308 309 310 311 312 312 313 313 312 312 312 313 313 312 312 311 311 311 311 311 312 313 313 314 314 315 315 316 317 317 317 318 318 319 319 319 320 320 321 322 322 321 321 320
309 310 307 302 298 300 299 301 299 299 300 302 302 299 301 301 303 303 303 300 301 301 302 305 302 303 301 302 300 300 301 305 304 304 302 302 302 302 302 302 303 302 304 303 302 302 303 303 303 305 305 305 305 305 305 307 308 309 310 310 310 309 309 309 309 309 309 309 308 307 306 306 307 309 309 310 311 311 311 311 313 315 315 316 316 316 316 317 317 317 317 318 319 319 318 317 316
310 308 307 304 300 298 300 298 300 299 300 302 300 299 299 301 299 300 301 301 303 302 299 302 305 301 301 300 303 302 303 304 303 303 302 301 301 301 302 302 302 303 302 301 302 302 301 302 302 303 304 304 304 305 306 304 304 306 307 307 307 307 307 306 306 305 305 306 305 304 304 303 304 304 305 306 307 307 307 308 309 312 312 313 313 313 315 315 316 315 316 316 316 316 316 314 314
312 309 306 302 299 299 301 299 297 298 300 302 299 300 300 299 299 299 301 300 302 300 301 301 302 302 301 302 300 301 304 303 303 302 301 300 300 300 300 300 299 300 302 301 300 302 302 302 303 302 303 303 304 303 305 304 302 302 304 304 304 304 304 304 304 303 302 302 303 303 302 304 304 304 303 304 304 305 304 305 307 308 309 309 311 311 312 312 313 313 314 315 315 314 313 313 312
309 311 301 301 298 297 301 299 299 298 303 301 297 298 299 299 298 298 296 298 299 299 298 301 301 299 299 299 298 298 303 302 302 301 300 299 298 297 298 298 299 299 300 301 301 300 302 301 301 302 302 302 303 303 303 303 302 302 302 302 302 302 302 302 302 301 302 302 302 303 304 303 305 305 304 304 303 303 302 302 304 306 307 307 307 307 308 309 310 311 312 312 312 312 311 310 310
311 304 302 299 301 299 303 301 302 302 301 302 298 300 301 300 297 298 297 297 299 297 298 300 299 298 298 298 297 300 301 301 300 299 298 298 298 296 296 297 297 297 299 299 300 300 300 300 301 301 301 302 302 302 303 303 303 302 303 303 303 302 301 301 301 302 302 303 302 303 303 302 303 303 302 302 303 302 302 301 302 304 305 305 305 306 306 307 308 308 309 309 310 310 308 310 310
306 302 301 299 302 303 303 303 304 301 302 301 301 300 300 302 301 298 298 299 297 297 298 299 299 300 298 296 297 298 300 300 300 299 298 298 297 296 297 297 297 297 298 298 299 298 300 300 300 299 301 301 301 301 303 302 301 302 302 302 302 301 301 301 302 301 302 301 302 302 301 301 302 302 301 301 302 301 302 300 302 302 303 303 303 304 305 305 306 307 307 307 308 307 308 309 308
304 303 300 301 305 303 301 301 302 302 301 300 299 299 298 300 301 299 298 301 297 298 300 298 298 300 299 296 297 298 299 299 300 299 298 298 298 297 297 297 296 296 297 298 298 299 299 300 300 300 300 301 301 301 302 301 301 301 302 302 302 302 302 301 301 301 301 301 302 301 301 301 302 302 303 302 303 303 304 303 301 301 301 302 301 303 303 303 304 304 305 305 306 308 307 306 306
304 301 301 302 301 301 303 301 302 301 299 300 300 297 296 300 300 299 299 298 299 300 303 303 301 301 303 297 297 298 298 298 299 299 299 298 299 299 298 297 297 297 298 298 298 297 298 299 299 300 300 301 301 300 301 300 301 300 301 301 301 301 301 301 301 301 301 301 301 301 302 301 302 302 302 302 302 302 302 302 302 302 302 303 301 302 302 303 303 303 304 304 304 305 305 306 306
303 301 302 301 299 300 301 301 299 299 296 299 298 297 299 299 297 298 299 298 300 304 304 304 305 306 302 297 297 297 297 298 298 298 298 298 298 297 297 298 297 298 298 296 297 297 298 298 299 299 299 299 300 300 300 298 300 300 300 300 301 301 301 300 301 301 300 300 300 301 301 301 301 301 301 301 301 301 300 300 300 300 301 301 301 300 301 301 301 302 302 302 302 303 304 305 305
301 301 299 299 301 300 300 299 297 297 297 298 297 300 298 298 299 299 299 300 303 300 300 302 303 304 303 300 298 297 297 297 298 298 299 298 298 298 296 297 296 295 296 296 297 296 297 297 298 299 298 299 299 299 299 299 299 300 300 299 301 300 300 300 299 299 300 300 300 300 299 299 300 299 299 300 299 299 299 299 298 299 299 299 299 299 300 300 299 300 300 301 302 302 303 304 304
299 301 299 300 299 299 299 299 295 297 298 299 299 297 298 298 297 299 297 301 304 300 298 297 296 298 300 298 297 297 297 298 298 299 299 299 299 298 297 296 296 296 297 296 296 296 297 296 297 298 298 298 298 298 298 298 298 299 299 299 300 298 299 299 299 298 300 299 299 298 298 299 298 298 299 298 298 298 298 298 298 298 298 298 298 298 298 298 298 298 299 300 300 301 301 302 303
299 299 299 299 296 299 299 297 296 296 297 296 295 297 299 299 299 294 296 301 302 302 297 296 296 297 298 299 297 298 298 298 298 299 299 299 300 299 298 297 296 297 296 296 296 295 296 296 296 296 297 296 298 297 297 297 298 298 298 298 298 297 299 298 298 299 298 298 298 298 298 298 297 297 297 297 297 297 297 297 297 296 297 297 297 297 297 296 297 297 298 298 299 299 299 300 301
300 300 299 299 299 300 298 297 297 296 298 296 296 297 299 296 297 295 299 302 303 303 298 297 296 297 297 298 297 297 297 298 299 298 298 299 298 297 297 296 295 294 296 296 296 296 296 296 295 295 296 296 297 297 298 297 297 297 298 298 297 298 298 297 298 297 297 297 297 297 297 297 296 295 296 295 295 296 296 296 296 295 295 296 296 296 296 296 295 296 296 297 297 298 298 299 300
298 299 299 299 299 297 298 298 298 294 297 296 297 299 299 294 296 298 302 296 297 298 298 295 296 297 297 297 297 297 297 298 298 298 297 297 297 296 296 296 295 294 295 295 295 296 296 295 296 296 296 298 298 297 297 296 297 297 297 297 298 297 297 297 297 297 297 296 296 296 296 296 295 295 294 294 295 295 295 295 295 295 294 295 295 294 295 295 295 295 295 295 295 296 296 298 298
297 297 297 297 297 297 297 295 296 296 298 296 297 297 297 295 296 297 300 293 296 297 296 295 295 297 297 297 296 297 297 298 298 297 296 295 295 295 295 294 295 294 295 295 295 296 296 295 296 296 296 297 297 296 297 297 296 296 297 297 296 297 296 296 296 296 296 295 296 295 295 295 294 294 294 294 294 294 294 293 294 294 293 294 294 294 293 294 294 295 295 296 296 296 296 296 298
295 295 297 298 298 298 298 297 297 295 297 295 297 295 293 294 294 300 299 293 295 296 296 295 295 296 297 297 296 296 296 296 297 296 296 296 296 295 295 296 295 294 295 296 295 296 295 295 295 295 296 297 295 295 296 296 296 296 296 296 296 296 296 296 296 296 295 295 295 295 294 294 294 294 293 293 293 293 293 293 293 293 293 293 293 293 293 294 294 294 294 295 295 295 295 295 297
295 297 296 296 298 298 296 295 294 295 297 295 296 293 298 296 299 302 294 295 293 294 296 295 295 295 295 295 294 295 295 295 295 295 297 297 296 295 295 295 296 295 295 295 295 294 295 296 296 296 296 296 296 295 295 295 295 296 295 295 295 296 295 295 294 295 294 294 295 294 294 293 293 293 293 293 293 292 293 292 292 292 292 292 292 292 292 292 292 293 293 293 293 293 293 294 294
296 295 295 296 295 296 295 296 295 296 295 294 296 293 296 301 300 303 296 295 295 296 297 297 295 294 294 294 294 294 294 295 295 295 296 297 296 295 295 295 295 295 295 295 294 295 295 296 296 294 296 296 295 295 295 295 295 295 294 295 295 295 295 294 294 295 294 294 294 294 294 293 293 293 292 292 292 292 291 291 291 291 291 291 291 291 291 291 292 292 292 292 292 292 293 293 293
296 294 295 295 294 297 296 295 295 297 294 294 296 293 295 300 302 299 294 294 294 295 298 298 296 295 294 294 293 293 294 294 294 295 295 295 295 294 295 295 295 294 294 294 294 295 294 294 295 295 295 295 295 295 295 295 294 294 294 295 294 294 294 294 294 294 294 293 293 294 293 293 292 292 292 291 291 291 290 290 291 291 291 290 290 290 291 291 291 291 292 292 290 291 291 292 293
295 294 295 295 295 296 295 295 294 293 295 295 296 294 297 298 298 293 290 293 293 294 296 297 297 295 295 294 293 293 293 293 293 293 294 294 294 294 294 294 294 294 294 294 294 294 294 294 294 295 294 294 294 294 295 294 294 293 293 293 293 294 293 293 293 294 294 293 293 293 293 292 292 292 291 291 290 290 290 290 290 290 290 289 289 290 290 291 290 291 291 291 291 290 290 291 291
296 295 294 298 293 295 293 294 292 294 294 294 295 292 295 298 300 295 290 293 293 293 296 297 297 296 295 295 294 293 293 293 292 292 293 293 293 293 293 294 294 294 294 294 294 294 293 294 295 295 295 294 294 294 293 294 293 294 293 293 293 292 293 293 293 293 293 293 293 292 292 292 291 291 291 291 290 290 290 290 290 290 290 289 289 289 289 290 290 290 289 290 290 289 288 289 289
296 295 293 294 294 293 294 294 293 292 292 292 294 293 294 297 298 300 299 293 295 296 297 298 298 297 296 295 294 293 293 293 293 294 294 293 293 292 292 293 293 293 293 293 294 294 294 294 294 294 294 293 294 294 294 294 293 293 293 293 293 292 293 292 292 292 292 293 292 292 292 292 291 291 290 290 289 289 289 289 289 289 289 288 288 289 289 290 290 289 288 288 289 289 288 289 289
295 295 295 294 293 294 294 295 292 293 292 292 293 292 294 296 297 299 300 296 295 296 298 298 298 298 297 296 295 293 293 293 295 296 295 294 293 292 292 292 292 293 292 292 293 293 293 294 294 294 293 293 293 293 293 293 292 292 292 292 291 291 292 291 292 291 292 291 292 291 291 292 291 290 290 290 289 289 288 288 288 289 288 288 288 288 288 288 288 287 288 287 287 288 289 289 290
295 296 295 294 295 295 297 293 291 289 290 291 293 294 294 294 296 297 298 298 296 295 295 296 297 297 296 296 295 294 293 294 297 296 296 294 293 292 292 292 292 292 291 291 292 293 293 293 293 292 293 293 292 292 292 292 291 291 291 291 291 291 291 291 291 292 291 291 291 291 291 290 291 290 290 289 289 288 288 288 288 288 288 288 287 287 288 287 287 287 287 287 286 286 287 289 289
294 295 294 294 295 292 295 292 289 291 290 292 294 292 292 294 295 296 297 296 296 297 297 297 298 298 298 297 296 295 294 296 296 294 294 294 292 292 292 291 291 290 290 290 291 292 292 293 292 293 293 292 292 292 292 292 292 292 291 291 291 291 290 290 290 291 291 291 291 291 291 291 290 290 289 289 288 288 287 287 287 287 287 287 287 287 287 287 287 287 287 285 287 286 285 288 288
292 293 294 292 293 295 295 290 289 290 289 290 293 290 292 294 296 297 297 297 298 299 299 299 299 300 300 299 298 296 295 294 294 294 294 292 293 292 291 290 290 290 290 290 291 292 292 292 292 293 292 292 292 292 292 291 292 291 291 290 290 290 291 290 290 290 291 290 291 291 290 290 290 289 289 289 288 288 287 287 287 287 287 287 286 286 286 286 286 286 286 285 284 286 286 288 288
293 292 291 291 295 291 292 291 289 290 290 291 291 289 291 294 296 296 298 297 298 299 299 300 301 299 299 300 299 296 295 295 294 292 292 291 291 291 290 290 290 290 290 290 290 291 291 292 292 292 292 292 292 292 292 292 291 291 290 290 290 289 289 290 290 290 290 290 289 290 290 290 289 288 288 288 287 287 287 286 286 286 286 287 286 285 285 285 286 285 285 285 285 283 285 285 288
293 294 294 293 294 293 291 292 289 290 289 287 289 290 292 295 294 296 296 293 291 293 294 296 298 300 301 301 299 298 297 296 295 293 292 291 290 290 290 290 290 289 290 289 290 290 290 291 292 292 292 292 292 291 291 291 290 289 289 289 289 288 288 288 288 288 289 289 289 289 289 289 289 288 288 288 287 287 287 286 286 286 286 286 286 285 285 285 285 285 285 284 284 283 283 284 286
293 293 294 295 295 293 291 289 290 291 291 289 289 286 289 296 295 294 297 294 294 294 292 294 297 298 298 296 297 298 298 298 296 294 293 292 290 290 290 289 289 289 289 290 291 291 291 291 292 292 292 291 291 291 291 290 290 289 288 287 286 287 287 287 287 288 289 289 288 289 289 288 288 288 287 287 287 286 286 286 286 285 285 285 285 285 285 285 285 285 285 284 284 284 283 283 283
291 293 294 294 293 292 290 289 289 288 287 290 289 286 284 292 292 294 295 294 295 297 295 296 297 300 299 297 297 297 297 296 296 296 294 292 291 290 289 289 289 289 289 291 291 291 291 291 292 292 291 291 291 290 291 290 289 289 288 288 288 288 288 289 289 289 288 288 288 287 288 288 288 287 287 286 286 286 285 285 285 285 285 285 285 284 284 284 284 284 285 284 284 284 284 281 282
291 290 289 290 291 290 290 290 290 290 290 290 289 291 285 285 291 295 296 293 295 297 298 300 301 301 301 299 297 298 298 297 296 295 294 293 292 290 289 289 289 289 290 290 290 290 290 291 291 291 291 290 291 290 290 289 288 288 288 288 288 287 287 288 288 287 288 287 287 287 287 287 287 286 286 286 285 285 285 285 285 285 284 285 284 283 283 284 284 284 284 284 284 283 283 282 282
292 287 290 290 290 291 290 290 290 288 285 285 288 291 285 285 290 294 294 292 293 295 297 299 301 302 300 300 298 298 298 297 296 295 294 293 292 291 291 289 290 290 290 289 290 290 290 291 291 290 290 290 290 290 289 288 289 288 288 287 287 287 288 288 288 287 286 287 286 286 286 286 286 286 285 285 285 284 284 284 284 284 284 284 284 284 283 284 283 283 283 283 283 283 283 283 282
288 287 288 288 289 288 289 289 288 287 284 282 287 289 284 285 289 289 288 291 293 295 297 299 300 302 302 299 298 297 296 296 295 295 295 294 293 292 292 291 290 289 290 290 290 290 290 290 290 289 289 289 289 289 288 288 288 288 287 287 287 287 287 287 287 286 286 286 285 285 285 285 285 285 285 285 284 284 284 284 283 283 283 283 283 283 283 283 283 283 283 283 283 282 283 282 282
289 291 292 290 289 288 287 287 287 286 281 284 289 289 288 283 290 290 287 291 293 297 298 299 301 301 300 299 298 297 295 294 294 293 294 294 293 293 291 290 289 289 289 289 289 289 289 289 289 288 288 289 289 288 288 287 287 287 287 287 287 287 287 286 285 285 285 285 284 284 284 284 284 284 284 284 284 284 283 283 283 283 283 283 282 282 282 282 282 283 283 283 282 282 282 282 282
291 290 290 291 288 287 286 286 286 282 282 288 288 289 289 281 288 291 295 296 297 298 297 297 299 299 301 301 298 296 295 294 292 291 291 292 291 291 290 289 288 288 288 287 289 289 288 288 288 287 288 288 287 287 287 287 287 287 287 287 287 286 286 285 284 284 284 284 284 283 283 283 283 283 283 283 283 283 282 282 282 282 282 282 282 282 282 282 282 282 282 282 282 282 282 282 281
290 291 290 286 286 285 283 283 279 280 282 284 282 287 285 284 289 294 294 294 295 298 299 299 300 301 302 302 299 296 294 292 291 290 290 289 289 289 288 288 288 287 286 287 287 288 288 288 288 287 287 287 286 287 286 286 286 286 286 286 286 286 285 285 284 284 284 283 283 282 282 281 282 282 282 282 282 282 281 281 281 281 281 281 281 281 282 282 282 281 281 281 281 281 281 281 281
288 288 288 286 282 281 278 283 282 282 286 284 283 286 282 289 291 295 294 296 297 297 297 300 301 301 302 302 298 293 291 291 290 290 289 289 288 288 288 287 287 286 286 286 287 287 287 287 287 287 286 286 286 286 286 286 286 286 286 286 285 285 284 284 284 283 283 283 283 282 281 281 281 281 281 281 281 281 281 281 281 280 281 281 281 281 281 281 281 281 281 280 281 281 281 281 281
288 293 291 288 287 283 279 282 280 282 285 282 284 282 283 284 289 295 297 298 298 298 298 298 297 298 295 291 291 291 290 289 289 289 288 288 288 288 287 286 286 286 286 286 286 287 287 286 286 286 286 285 285 285 285 285 285 285 285 285 285 284 283 283 283 283 282 282 281 281 281 281 280 280 280 280 280 280 280 280 280 280 280 280 280 280 280 280 280 280 280 280 280 281 281 280 280
290 292 292 287 286 291 284 285 283 283 283 283 280 283 290 290 292 293 292 296 297 298 297 296 295 295 294 291 291 291 290 289 288 288 288 288 289 288 286 286 286 286 286 286 286 286 286 286 286 286 286 285 285 285 285 285 285 285 284 284 283 283 283 282 282 282 281 281 281 280 280 280 280 279 280 279 279 279 279 278 279 279 279 279 279 279 279 279 279 279 279 279 279 281 280 280 280
288 288 285 289 292 291 286 282 280 279 281 280 287 285 289 293 293 293 294 292 295 295 296 296 295 296 295 293 293 293 292 291 289 288 288 288 287 286 286 286 286 286 285 285 286 286 286 286 285 285 285 285 285 285 285 284 284 283 283 282 282 282 281 281 281 281 280 280 280 279 279 279 279 279 279 279 278 278 278 278 278 278 278 278 278 278 278 278 278 278 278 278 279 279 279 279 279
288 284 289 290 293 293 287 282 283 282 279 282 285 283 286 287 284 290 292 291 292 293 293 294 294 295 293 294 294 293 292 292 290 289 288 287 287 286 286 286 286 285 285 285 286 287 286 286 285 285 285 284 284 284 284 284 283 282 282 281 281 281 280 280 280 279 279 279 279 279 279 278 278 278 278 278 278 277 277 277 277 277 277 277 277 277 277 277 278 277 278 278 279 279 278 279 279
289 287 293 288 284 283 286 283 277 278 277 280 285 286 287 288 288 287 288 289 291 292 293 292 292 292 292 293 293 292 292 291 289 288 287 286 286 286 285 285 286 285 285 285 286 286 285 285 285 285 284 284 284 284 284 283 283 282 281 281 280 280 279 279 279 279 278 278 277 278 277 277 277 277 277 277 277 276 276 276 276 276 276 276 277 277 277 277 277 277 277 277 278 278 278 277 278
289 288 288 289 287 287 283 285 285 285 280 280 281 285 283 293 292 293 292 291 292 292 291 292 292 293 292 292 292 292 292 291 289 288 287 287 286 286 285 285 285 285 285 285 285 285 284 284 284 284 284 284 283 283 282 281 281 280 279 280 279 279 279 278 278 278 277 277 277 277 276 276 276 277 276 276 276 275 275 275 275 275 275 276 276 276 276 276 276 276 276 276 277 277 276 276 277
284 285 286 286 286 287 288 286 283 284 282 281 280 280 285 292 294 294 294 293 293 293 292 293 294 294 294 293 292 292 292 292 290 289 288 287 286 286 285 285 285 285 285 284 284 283 283 284 283 283 283 282 282 282 281 281 280 279 278 278 277 277 277 277 277 277 276 276 276 276 276 276 276 275 275 275 275 275 275 275 275 275 274 274 274 274 275 275 275 275 275 275 276 276 275 275 275
289 287 285 287 284 283 280 280 285 282 283 279 280 278 286 294 292 294 294 294 296 295 295 295 294 293 293 293 292 292 292 291 291 290 289 288 287 285 285 284 284 283 283 283 283 283 283 282 283 283 283 282 281 280 280 279 279 278 277 277 276 276 276 276 275 275 274 275 275 275 275 275 274 275 275 274 274 274 274 274 273 273 273 273 273 273 273 273 273 273 273 274 274 274 273 273 273
Wind_Speed
4 3 3 2 2 2 3 1 4 3 3 1 2 4 4 3 0 4 5 5 6 3 1 1 2 7 7 2 3 2 3 4 0 5 1 3 4 4 4 3 3 3 3 4 5 6 8 11 12 12 12 12 12 12 13 13 13 13 14 14 13 14 15 15 14 14 14 15 16 15 14 15 16 15 15 15 15 14 14 14 13 12 11 10 10 11 11 10 11 12 12 12 12 10 8 7 7
3 4 3 2 1 2 2 2 2 2 1 3 2 1 5 5 3 8 9 11 1 5 5 3 3 2 5 4 4 2 2 2 4 3 3 4 5 5 4 3 3 3 3 4 5 6 7 10 12 11 12 12 12 13 13 13 13 13 13 14 13 13 14 14 14 14 14 13 15 15 15 16 16 16 16 16 15 16 15 15 14 13 12 11 11 11 11 11 11 11 11 11 11 12 13 10 9
4 4 3 2 2 2 2 2 4 1 3 2 4 4 5 7 8 8 7 8 6 7 8 7 6 3 1 1 4 6 2 2 2 2 3 6 6 5 4 3 3 3 4 4 5 6 6 10 11 12 12 12 13 13 13 14 14 14 14 14 14 14 14 14 14 15 15 14 15 15 16 16 16 16 16 15 15 15 15 15 14 14 13 12 12 11 12 11 11 11 10 10 10 10 12 13 13
2 1 1 2 1 1 3 3 4 3 3 2 1 6 8 9 9 5 4 6 9 9 8 8 9 1 4 9 2 2 1 3 4 5 5 7 2 6 4 3 2 4 5 3 4 6 8 9 11 11 12 12 13 13 14 14 14 14 14 15 15 15 15 15 15 16 16 15 15 15 15 15 15 16 15 15 16 15 14 15 14 14 14 14 14 13 12 12 12 12 11 10 10 11 12 13 13
1 1 2 2 3 3 2 1 2 2 4 3 1 6 10 8 7 6 5 7 9 6 4 5 2 2 3 4 2 3 3 5 4 2 3 4 4 5 5 3 3 4 4 5 5 6 8 12 11 11 12 12 13 13 14 14 15 15 15 15 15 16 16 16 16 16 16 16 16 15 15 16 16 16 15 15 15 14 14 14 14 14 14 14 14 14 14 13 12 13 12 11 11 11 11 11 11
2 2 1 2 3 3 2 3 4 6 2 0 2 3 10 7 7 7 9 8 7 1 2 6 2 6 4 3 0 1 2 4 5 4 4 5 5 5 4 3 4 5 4 5 6 6 8 11 11 12 12 13 13 14 14 14 15 15 16 16 16 16 16 16 16 17 16 16 16 16 16 16 16 16 16 16 15 15 15 14 14 15 15 15 15 15 14 14 14 13 13 13 13 13 12 12 12
3 4 3 3 2 2 4 4 4 4 2 1 2 1 10 7 6 11 10 7 5 4 3 4 2 3 5 3 2 3 2 1 5 4 0 8 6 5 4 5 5 6 6 5 5 6 10 11 12 12 12 13 13 14 14 14 15 15 15 16 16 17 17 17 17 17 17 17 17 16 16 16 16 16 16 16 16 15 15 15 15 14 14 14 14 14 14 14 15 15 14 14 14 14 13 13 12
2 3 2 4 2 2 4 2 4 2 1 3 3 2 7 8 9 10 13 12 8 7 8 4 4 5 1 1 4 5 1 1 3 7 8 7 7 5 3 4 6 7 6 5 5 6 9 13 12 13 13 13 13 13 14 14 15 15 16 16 16 16 16 16 16 17 17 17 16 16 16 16 16 16 16 16 16 15 15 15 15 15 15 15 15 15 15 14 14 14 13 13 13 13 13 13 14
1 2 1 3 4 1 2 4 2 1 3 2 3 3 6 6 10 11 13 9 4 6 5 8 6 6 3 5 3 3 4 4 5 7 8 8 7 5 3 4 6 6 6 5 5 5 7 11 12 12 13 13 13 13 14 14 15 15 15 15 16 16 16 16 16 16 16 16 16 16 16 16 16 15 15 15 15 15 15 15 15 15 15 15 15 15 15 15 15 15 14 14 14 13 13 13 13
2 3 3 2 2 5 2 3 4 2 3 1 3 3 5 5 9 8 11 10 4 5 3 4 5 9 3 6 2 5 5 9 8 8 8 8 7 6 6 6 6 6 6 5 5 6 6 9 12 12 12 13 13 13 13 14 14 15 15 15 16 16 15 15 15 16 16 16 16 16 16 16 16 16 16 16 15 15 16 16 16 15 15 15 15 15 15 15 16 16 16 16 15 15 14 14 14
3 2 2 4 4 4 5 2 5 2 4 0 4 4 4 6 7 8 7 5 4 4 5 5 4 11 3 3 2 5 7 10 11 10 9 8 7 7 7 6 5 5 7 6 5 5 5 6 10 11 11 12 13 13 14 14 14 14 15 15 15 15 15 15 15 15 15 15 15 16 16 15 15 15 16 16 16 16 16 16 16 16 16 16 16 16 16 16 16 16 16 16 16 16 16 16 16
3 3 3 4 5 5 2 4 2 2 2 2 5 7 4 9 6 8 11 10 7 6 7 11 1 7 6 3 3 6 9 11 11 10 9 8 7 6 7 5 6 6 6 5 5 5 4 5 5 8 11 12 12 13 13 13 14 14 14 15 15 15 15 15 15 15 15 15 16 15 15 15 15 16 16 16 16 16 16 16 16 16 16 16 16 16 16 16 16 16 16 15 16 16 16 17 17
3 1 4 4 1 2 1 3 2 1 3 8 7 5 5 11 13 11 10 9 5 8 8 14 3 6 5 5 4 6 11 13 10 11 11 8 8 6 6 7 6 6 6 5 5 5 5 4 5 6 7 9 11 12 13 13 13 13 13 14 14 14 15 15 15 15 15 16 15 15 15 15 15 15 16 16 16 17 16 17 17 16 16 16 16 16 16 16 16 16 15 15 15 15 16 16 16
3 1 2 3 2 1 3 2 0 4 5 4 3 6 9 9 12 5 5 11 10 11 2 8 3 3 7 0 5 7 10 14 12 12 9 9 7 6 7 6 6 6 5 5 6 5 5 5 5 5 5 6 6 7 11 13 12 12 13 13 14 14 14 15 14 14 14 14 14 13 13 13 14 14 14 15 16 16 16 16 17 17 17 17 17 16 16 15 15 15 15 14 14 14 15 15 15
1 1 1 1 1 1 2 4 1 4 3 5 6 9 7 4 2 4 9 12 11 5 4 1 4 4 3 11 4 6 12 16 14 12 10 9 8 7 6 6 6 5 5 5 5 4 5 4 5 4 5 4 5 5 5 9 12 11 12 13 13 14 14 14 14 14 13 13 12 11 10 9 9 11 11 12 13 14 15 14 16 16 16 16 16 17 16 16 16 15 15 15 14 14 13 13 12
1 2 0 3 3 3 2 5 2 2 4 5 5 2 9 3 3 5 5 4 2 2 4 7 7 6 3 3 5 4 14 16 13 12 10 10 7 7 6 6 6 5 4 4 5 3 4 4 3 4 4 4 4 5 5 6 8 10 11 12 13 13 13 13 13 12 11 12 10 9 7 7 7 7 11 9 11 12 14 12 14 14 14 15 15 16 16 16 16 17 16 16 16 15 15 14 10
1 2 3 3 6 4 3 4 6 3 3 4 6 7 11 7 5 2 3 3 5 5 8 3 10 1 3 3 3 2 13 14 14 14 12 9 8 7 6 6 6 5 3 4 4 4 4 4 3 3 4 4 4 4 5 5 5 5 7 9 11 12 11 11 10 10 8 9 9 8 5 8 6 6 8 8 9 9 12 13 13 13 13 13 13 13 13 14 15 15 16 16 16 16 16 15 9
2 4 3 6 2 4 4 6 7 3 2 5 8 10 9 8 6 4 4 5 7 2 8 6 6 7 2 3 1 4 13 15 15 16 13 11 9 9 8 8 7 7 6 5 4 4 4 4 4 4 4 4 4 3 3 2 3 5 5 5 6 7 8 7 8 7 8 7 8 7 6 6 6 6 7 9 6 8 8 11 12 12 12 12 14 11 11 11 13 13 13 15 16 14 15 8 8
3 2 3 6 2 0 2 1 4 3 2 1 5 7 8 6 8 6 6 7 9 9 10 8 10 11 7 5 5 10 15 15 17 16 16 15 12 13 10 8 8 7 7 6 5 6 4 4 4 5 4 4 5 4 2 3 3 3 4 4 4 6 6 7 6 7 6 6 6 5 5 5 5 4 6 6 6 7 5 9 11 10 10 10 14 10 10 10 12 10 11 12 12 11 8 6 7
0 3 5 5 1 1 3 3 4 5 2 2 5 6 6 2 2 6 7 7 6 13 10 9 13 16 15 10 10 13 16 17 17 18 17 16 14 13 11 11 9 9 8 7 7 4 5 4 4 4 4 3 3 3 2 2 2 2 2 2 2 3 4 4 5 5 5 6 4 4 4 4 4 3 3 3 4 5 4 5 7 8 8 8 13 7 8 8 12 9 10 11 8 6 6 6 7
3 3 5 0 2 3 2 6 4 2 2 2 4 4 5 6 4 6 3 8 14 14 14 13 15 17 14 14 13 14 17 17 18 17 17 16 14 11 11 11 10 9 8 7 6 6 6 5 5 4 4 3 3 3 3 2 2 2 2 2 2 3 3 3 3 4 5 5 4 3 3 3 3 3 4 4 5 5 5 6 6 6 7 7 9 7 7 7 7 7 7 7 6 6 7 7 7
2 4 3 2 3 5 2 3 3 3 1 2 3 6 6 6 2 9 9 12 14 8 12 15 15 10 11 15 16 14 17 18 19 19 19 19 18 15 12 10 8 8 7 7 8 8 7 6 5 5 4 3 3 2 2 3 1 2 2 2 2 2 3 3 3 3 3 4 4 4 3 4 4 4 5 5 5 6 6 6 6 6 7 7 7 6 7 7 7 7 7 7 7 6 7 7 7
4 3 3 2 2 5 2 2 2 5 4 6 5 5 4 7 5 9 12 18 13 8 6 1 6 3 7 13 15 16 17 19 20 21 20 19 18 16 13 11 10 9 8 8 8 8 8 8 7 5 5 4 3 2 3 2 2 2 2 2 2 2 2 2 3 3 3 4 4 5 4 4 4 5 5 6 6 6 6 6 6 6 7 6 7 7 7 7 7 6 7 7 7 7 8 7 8
3 4 2 3 3 6 2 1 2 5 4 6 1 2 6 4 10 3 12 21 18 4 4 2 1 1 8 13 17 19 20 21 22 21 20 19 18 17 14 13 11 9 9 10 9 8 8 9 8 7 6 5 4 4 3 3 3 3 2 2 2 2 1 2 2 3 3 4 5 5 5 4 4 4 5 5 5 5 5 6 6 5 6 5 6 6 7 7 7 6 7 7 8 7 8 8 7
5 6 3 0 1 6 1 1 3 3 6 1 2 5 9 8 6 3 17 18 13 10 5 3 2 4 8 12 15 16 16 16 17 17 13 12 12 12 11 9 11 10 11 11 9 9 9 8 9 8 7 7 5 4 4 3 3 3 2 2 2 1 2 2 2 2 3 3 5 5 5 5 5 5 5 5 5 5 5 6 5 5 5 5 6 6 6 7 6 6 6 7 7 7 8 8 8
7 2 2 1 4 2 1 3 5 4 2 3 5 11 5 2 3 13 24 18 11 10 7 6 5 7 10 13 15 16 16 18 17 16 16 11 10 13 13 11 11 12 12 11 10 8 9 9 9 9 8 7 6 5 4 4 4 4 3 2 2 2 2 2 1 2 3 3 4 5 6 5 5 5 5 5 5 5 5 6 5 5 6 6 6 6 6 6 6 6 6 7 7 7 8 8 8
1 1 3 6 3 3 1 6 2 1 4 4 8 11 5 3 3 12 2 3 3 6 7 5 8 11 11 10 12 14 15 18 19 14 11 11 11 14 14 12 13 13 12 12 10 9 8 9 9 8 7 7 6 6 5 5 4 4 3 3 2 2 2 1 2 2 3 3 4 5 4 5 4 4 4 5 4 5 5 5 6 5 5 5 6 6 6 6 6 6 6 7 7 7 7 7 8
2 3 4 7 7 6 6 3 5 1 5 5 8 12 2 2 3 16 4 3 4 7 7 8 9 11 10 12 11 11 12 13 12 13 18 17 15 15 16 14 15 13 13 13 10 9 9 10 10 9 8 8 7 6 5 4 4 4 3 3 3 3 2 2 2 2 3 3 3 3 3 3 3 2 3 4 5 4 4 5 5 5 5 5 6 6 7 7 6 6 7 6 7 7 7 7 8
1 2 6 2 4 7 6 7 2 4 4 3 3 9 10 8 12 21 3 4 4 4 7 8 10 10 10 10 10 10 12 11 12 13 18 16 12 13 16 14 14 13 10 12 11 11 12 11 10 9 8 8 7 6 5 4 3 3 3 2 3 2 2 2 2 2 2 2 2 3 3 2 2 3 3 4 4 4 4 5 5 5 5 6 6 7 8 7 6 6 7 7 6 7 7 7 8
1 2 2 7 5 8 4 2 2 5 1 3 2 11 8 16 21 11 6 5 4 4 7 9 8 8 9 9 10 10 10 11 14 16 14 13 13 14 15 14 14 12 10 10 11 12 10 7 6 7 8 8 7 5 4 4 3 2 2 2 3 2 2 2 2 2 2 1 2 2 1 2 3 3 4 4 4 4 4 4 5 5 5 7 7 6 7 6 6 7 7 7 7 7 8 8 8
3 2 2 4 4 3 3 3 5 6 3 3 2 9 16 6 12 8 6 6 7 9 9 9 8 8 8 10 10 11 12 13 15 14 13 13 12 12 15 14 14 13 9 10 13 13 11 8 6 6 7 7 6 5 5 4 3 3 3 2 2 1 2 1 1 2 1 1 1 1 1 2 3 3 3 4 4 4 4 4 5 4 5 7 6 6 6 7 6 7 7 8 8 8 8 8 9
1 3 4 3 4 2 3 5 7 6 3 3 3 10 16 16 4 6 4 5 6 9 10 11 9 9 10 10 11 11 12 12 13 13 14 13 13 12 14 15 15 14 14 12 11 11 11 10 8 7 8 8 7 6 5 5 5 4 3 2 3 2 1 1 1 1 1 0 0 0 1 2 2 3 3 4 4 4 4 5 4 5 6 6 6 6 6 6 6 6 6 7 8 9 9 9 8
1 5 7 5 3 4 4 6 2 2 4 4 11 10 11 12 3 2 4 5 6 8 11 12 13 12 11 11 10 10 10 11 12 14 15 14 13 12 13 14 15 15 13 13 13 12 11 10 10 9 10 9 8 7 6 5 5 4 4 3 3 2 1 2 1 1 1 1 0 1 0 1 2 2 3 4 4 5 5 5 5 5 6 6 6 6 6 5 6 6 6 6 7 9 9 11 10
5 2 6 2 7 4 6 5 3 2 6 7 11 9 17 18 11 5 5 7 6 9 14 15 14 12 11 10 10 10 12 12 14 17 19 16 12 14 13 13 14 14 12 13 13 13 12 11 10 9 9 9 7 7 7 6 5 4 4 3 2 2 2 1 1 1 1 1 1 1 1 2 2 3 3 4 4 5 5 5 6 6 6 6 6 6 6 6 5 6 7 7 7 8 8 9 11
4 4 5 7 5 9 11 6 3 4 2 9 9 14 20 21 20 18 9 10 9 14 16 19 17 13 12 11 11 12 12 13 16 16 17 16 14 14 12 12 12 13 10 13 12 12 11 10 9 10 9 9 8 7 7 5 5 4 3 3 3 2 2 2 1 2 2 2 2 1 2 3 3 3 4 4 4 5 5 5 6 6 6 6 6 6 6 6 6 6 8 8 7 7 9 10 10
9 6 8 6 9 8 7 3 3 5 6 8 14 14 17 19 20 19 15 9 12 16 18 17 17 13 12 13 11 11 12 15 13 12 14 13 12 13 12 11 11 11 11 12 13 13 12 11 10 9 9 9 8 7 6 5 4 4 5 4 4 4 2 2 2 2 2 2 2 2 3 4 4 4 4 4 5 5 5 6 6 6 6 6 6 7 6 6 7 8 8 8 10 8 7 8 9
2 1 3 9 9 12 10 3 3 2 3 14 18 17 18 21 21 21 20 6 10 15 18 19 16 11 13 13 11 12 13 16 9 11 12 13 14 12 11 11 11 12 13 14 14 14 14 12 11 12 10 10 8 8 7 6 6 5 3 4 4 3 3 2 2 2 3 3 2 3 5 5 5 5 4 4 4 5 6 6 7 6 6 6 6 6 7 8 7 7 7 7 8 9 8 7 8
7 6 6 10 6 13 2 1 5 3 3 7 8 11 17 20 19 20 20 10 20 23 19 20 20 15 14 14 12 12 14 7 8 9 11 11 12 13 12 11 13 16 15 15 16 15 14 13 13 11 9 9 9 8 6 6 5 4 3 3 3 2 2 3 2 2 3 3 4 5 5 5 5 5 4 4 5 6 6 6 6 7 6 6 6 7 8 7 7 6 6 7 5 7 8 7 7
4 7 5 5 11 6 9 2 4 3 4 11 8 13 17 20 20 22 21 22 15 18 19 22 20 19 14 10 11 11 9 12 10 12 12 13 14 15 13 12 13 15 15 15 15 15 14 13 12 12 10 10 8 7 6 5 4 3 2 2 2 2 1 1 1 2 2 4 5 5 5 6 5 5 4 5 5 6 7 7 7 7 7 6 7 7 6 7 6 7 6 7 8 6 7 6 5
6 5 5 11 2 3 6 3 3 4 5 8 9 16 17 20 20 23 23 16 16 14 16 19 17 19 20 13 7 9 12 12 13 14 14 14 14 14 14 13 14 14 13 14 15 16 13 12 12 12 11 10 8 7 6 5 5 4 3 1 1 1 1 1 3 4 5 5 6 6 6 5 5 5 5 5 6 7 7 7 7 7 7 7 7 7 7 7 6 6 6 7 7 10 6 7 5
6 8 9 11 7 7 7 4 4 4 5 3 11 14 15 13 11 7 3 1 3 11 8 15 17 16 14 0 3 9 14 12 11 12 13 15 16 18 18 15 13 15 15 15 15 15 11 14 13 12 10 10 8 8 8 7 6 5 4 2 1 2 3 4 4 5 6 6 5 6 6 5 5 5 5 6 6 7 7 7 7 7 7 7 6 6 6 6 7 6 7 7 7 8 11 8 7
5 9 14 13 4 10 2 3 7 6 6 3 6 13 12 5 6 5 4 2 6 5 7 11 13 11 7 10 11 10 11 10 11 14 16 16 16 15 14 15 16 15 16 16 14 14 12 13 12 12 9 9 9 9 9 7 6 6 5 5 5 5 6 6 7 6 5 5 5 3 4 4 5 5 5 6 7 7 7 8 8 8 7 7 6 6 6 6 6 6 6 7 8 8 9 10 9
4 6 8 14 10 2 1 1 0 5 6 2 4 4 17 7 6 7 4 5 9 5 8 11 10 11 6 8 8 10 11 9 9 10 12 14 15 15 16 17 18 18 16 13 12 13 14 12 12 12 11 9 9 10 10 8 7 6 7 6 6 6 5 5 3 2 3 4 3 4 4 3 4 5 6 6 6 7 7 8 8 8 7 7 6 6 7 7 7 6 6 7 8 8 8 10 10
7 3 1 4 5 7 5 4 6 9 3 4 3 7 15 13 9 5 7 7 7 9 14 15 13 10 11 7 9 10 9 10 10 12 13 14 15 17 19 19 17 18 15 13 12 12 15 13 13 13 10 10 9 10 11 9 8 7 7 7 6 6 6 5 3 4 3 4 4 5 4 4 4 5 6 6 6 7 8 8 8 7 7 7 6 7 7 7 7 7 7 9 9 8 9 9 11
1 1 2 4 4 3 5 5 5 3 6 8 8 8 8 12 6 9 5 10 10 15 17 16 16 9 7 7 8 10 10 10 10 10 13 14 15 16 16 16 16 15 13 14 13 13 12 11 12 12 11 11 10 12 11 10 8 8 8 7 7 6 6 5 4 4 4 4 5 5 5 5 5 6 6 7 7 8 8 8 8 7 7 7 6 7 7 8 9 9 10 9 9 9 9 10 10
3 5 7 7 5 5 2 3 3 5 1 10 9 11 8 21 11 7 0 5 11 13 15 17 15 10 5 6 6 7 7 7 9 10 9 11 12 13 14 13 14 14 11 13 12 10 11 10 12 13 13 11 10 12 11 11 10 9 9 9 9 7 6 5 4 5 4 4 5 5 5 5 5 5 5 7 7 8 8 7 7 8 8 7 7 7 8 10 10 10 10 10 10 11 10 10 11
9 5 5 3 3 2 1 1 3 3 10 11 11 16 13 17 4 11 11 9 12 12 11 10 9 6 7 6 6 6 7 7 7 8 8 9 9 10 12 14 13 12 10 13 12 12 11 11 13 15 14 11 11 13 12 12 11 10 9 10 10 9 8 6 5 5 5 4 5 4 4 5 5 6 6 6 7 7 7 7 7 7 7 7 7 8 8 8 9 9 9 11 12 12 10 11 12
6 3 3 1 3 3 2 1 3 5 10 3 6 14 18 13 5 6 8 6 13 13 13 12 10 10 8 6 6 7 6 6 6 7 7 8 8 10 11 13 15 14 14 14 12 12 12 12 13 15 14 13 12 12 12 11 10 10 9 10 10 9 8 6 7 6 5 5 5 5 4 5 6 6 6 6 6 5 6 6 7 7 7 7 7 7 8 8 9 9 9 9 10 11 11 11 11
2 5 3 2 3 2 3 3 4 8 8 2 2 5 5 22 22 2 6 4 9 10 7 8 10 9 8 6 5 5 4 5 6 7 7 9 10 12 13 14 14 16 16 17 15 13 13 13 16 17 15 14 13 12 13 12 11 11 10 10 9 8 8 7 6 5 4 4 4 5 5 6 6 6 6 6 6 6 6 7 6 7 7 7 8 9 9 10 10 10 10 11 11 12 11 12 11
9 9 7 4 6 4 6 7 1 4 3 3 4 1 13 16 12 15 14 14 12 11 11 10 7 8 8 5 4 4 4 6 6 7 8 9 10 11 12 14 14 14 16 16 15 14 13 13 16 17 15 15 13 12 12 12 12 10 10 9 8 7 7 6 6 5 5 4 4 5 5 6 6 7 7 7 6 6 6 7 7 8 8 9 9 10 11 11 10 10 11 12 12 12 11 13 14
11 5 8 7 4 3 5 5 7 8 6 2 6 2 7 1 4 8 18 20 14 10 10 10 5 5 3 3 2 2 5 7 6 7 9 9 10 11 11 12 13 13 15 15 14 14 13 14 15 17 15 15 14 13 11 12 10 10 9 8 7 6 6 5 5 4 4 5 5 5 6 6 6 7 7 6 7 8 8 8 8 8 8 9 10 10 10 10 10 11 11 12 12 11 12 13 13
5 1 3 1 10 5 9 2 3 3 6 7 7 9 3 8 5 1 3 2 10 11 11 8 9 10 5 4 6 7 7 6 6 7 8 9 9 10 10 11 12 13 16 14 16 15 15 16 15 17 16 15 14 13 12 11 10 9 9 9 8 6 5 4 4 4 4 5 5 6 7 7 7 7 7 7 7 8 8 8 8 9 9 10 10 11 11 10 11 11 11 11 13 10 12 15 14
7 6 9 6 6 6 3 2 3 2 1 15 3 10 13 9 13 11 5 8 11 11 14 11 12 11 7 8 8 8 6 6 7 9 8 9 9 10 11 12 12 13 15 18 18 17 18 16 16 16 15 13 13 13 11 10 9 9 9 8 7 7 6 6 5 5 5 5 6 6 7 7 7 7 7 6 7 7 7 7 8 9 9 10 10 10 11 11 11 11 12 13 13 13 13 15 14
9 7 6 5 1 4 2 6 1 2 7 12 1 17 19 12 11 6 9 11 8 12 14 13 14 11 10 13 10 8 8 8 7 7 7 8 10 11 12 12 14 16 17 16 17 14 15 14 16 17 15 16 14 12 11 10 10 9 9 9 8 7 6 6 5 5 5 5 6 6 6 6 7 6 6 6 7 7 7 8 8 8 9 10 10 10 11 12 12 11 12 13 13 13 15 15 16
3 1 4 5 5 4 2 1 5 5 8 7 10 18 16 20 13 6 8 14 14 15 13 11 11 11 12 12 13 9 7 6 7 9 9 9 11 12 13 14 14 14 14 14 14 13 13 13 14 15 16 15 14 11 10 9 9 7 7 8 8 7 6 5 5 5 5 6 7 6 7 7 7 7 6 7 7 7 6 7 7 9 9 10 10 11 11 11 11 12 12 12 13 13 15 16 16
3 1 2 3 4 3 7 7 1 3 10 5 21 19 21 6 5 6 9 14 13 13 10 12 14 14 12 11 10 9 9 10 9 8 10 10 11 13 13 13 14 15 14 13 14 13 16 14 15 14 12 12 12 12 11 10 9 8 8 7 7 6 6 5 5 5 6 6 6 6 7 7 7 6 6 7 6 6 7 8 8 9 10 10 10 10 11 11 12 11 11 12 13 15 16 17 17
6 5 7 3 3 3 3 3 3 5 6 8 11 15 19 1 7 9 5 11 12 12 13 13 13 12 12 12 9 10 11 10 9 10 9 11 11 10 11 11 10 11 10 10 12 14 14 12 14 14 15 14 13 11 11 10 9 9 9 9 8 7 7 5 6 6 6 6 6 6 6 6 6 6 6 6 6 7 8 8 9 9 10 10 11 11 10 10 11 12 12 12 14 15 17 17 17
9 15 14 17 11 6 5 10 4 2 6 8 5 15 17 9 8 7 1 3 7 10 12 12 12 14 11 11 12 12 9 10 10 10 10 8 8 8 8 9 9 10 11 13 12 12 14 14 14 13 13 12 13 12 11 10 9 9 9 8 8 6 5 5 6 6 6 6 5 5 5 5 6 6 5 6 7 7 7 8 9 10 10 10 11 12 11 10 11 12 13 10 11 14 15 18 18
Wind_Direction
145 149 159 176 205 254 236 151 234 141 245 146 130 215 114 196 66 175 188 135 194 130 155 118 97 152 195 250 247 39 32 220 314 204 304 81 129 92 63 28 25 25 352 5 8 18 26 33 25 36 42 45 48 51 50 52 54 55 54 52 51 49 47 49 51 50 50 48 44 44 48 50 48 45 45 45 45 43 41 37 29 24 20 16 9 354 351 349 338 337 332 333 333 335 334 324 320
149 138 139 187 162 270 169 330 271 178 197 166 159 229 128 169 199 205 183 189 96 135 146 149 160 33 36 15 39 102 188 359 1 38 88 115 143 103 75 51 37 35 23 24 25 23 32 34 25 35 40 44 47 47 48 50 50 53 55 56 57 55 51 51 52 52 50 49 45 43 45 49 50 49 46 44 45 46 44 42 38 34 29 24 20 9 5 1 355 346 342 338 338 338 335 330 333
143 156 137 202 160 305 81 233 244 207 250 260 138 193 112 184 208 191 191 183 115 121 133 129 122 146 203 26 204 212 165 68 110 121 88 145 162 119 85 63 54 52 53 29 30 34 46 31 22 34 41 43 46 46 47 48 50 50 51 53 53 53 52 53 53 55 52 50 48 46 43 47 47 46 46 44 43 43 41 39 37 34 31 28 25 21 16 9 4 356 354 349 348 345 338 338 342
135 340 235 199 166 263 209 200 271 234 251 22 191 164 181 194 198 169 100 104 117 132 136 145 172 50 238 207 238 33 91 181 177 145 138 182 42 104 91 64 62 76 57 42 42 49 44 33 29 39 41 45 45 46 48 48 48 49 49 49 49 48 49 49 52 53 54 53 50 49 47 45 46 47 46 43 40 40 38 37 39 35 35 33 31 29 26 20 13 7 359 357 356 358 3 3 357
200 91 303 247 270 173 264 289 295 257 261 162 12 154 196 200 180 150 123 127 131 147 173 152 162 101 330 327 79 247 110 71 168 207 102 87 87 92 94 57 87 90 77 55 52 51 50 30 36 39 46 47 47 49 48 49 49 49 49 49 48 46 46 46 47 49 50 49 49 48 47 47 46 45 45 42 40 39 34 30 33 31 29 27 24 23 24 21 20 19 15 13 14 14 14 5 359
136 141 51 267 282 13 230 205 199 227 8 185 223 180 193 190 181 145 133 142 150 165 4 184 300 156 193 199 320 247 136 182 128 160 163 115 106 113 99 126 92 84 74 65 52 52 47 33 42 43 46 47 50 51 51 51 50 49 48 49 47 47 46 46 47 46 46 47 47 46 46 46 46 45 43 41 39 37 36 34 30 28 26 24 23 20 19 18 18 20 22 20 20 19 15 7 3
166 164 120 121 140 239 270 251 256 258 106 296 324 130 181 170 150 137 139 148 204 251 203 214 160 110 240 142 202 229 23 25 178 133 179 117 119 111 126 116 107 88 70 60 58 59 43 38 43 45 47 49 51 52 53 53 53 52 51 48 48 46 46 46 45 44 44 45 45 45 45 45 44 43 42 39 37 35 33 33 33 31 28 25 23 20 17 18 20 22 17 15 16 15 11 4 0
30 283 100 229 147 248 235 270 261 242 113 249 3 309 176 161 152 165 162 169 183 207 182 217 210 255 36 195 234 100 86 262 53 109 117 132 119 112 119 125 111 83 72 67 58 55 50 37 42 47 46 50 52 53 53 53 54 54 54 51 50 49 49 47 47 45 44 43 42 43 44 43 43 42 40 38 35 33 31 31 30 28 25 24 22 20 17 15 16 16 14 12 12 11 8 4 3
129 254 84 246 214 151 245 236 269 55 318 210 249 282 338 164 175 168 170 192 81 212 152 183 191 193 127 165 222 98 158 131 116 113 123 125 124 123 103 98 97 87 75 64 61 59 57 38 45 45 49 51 54 55 55 55 54 56 54 55 53 52 50 50 48 47 46 43 42 41 41 41 41 41 41 38 34 32 31 29 29 27 25 22 20 18 16 13 11 11 10 8 9 8 6 4 1
152 271 189 248 347 240 280 219 227 183 231 147 255 196 191 167 182 199 178 190 185 171 149 147 178 242 81 219 178 173 186 154 139 133 132 124 125 124 107 89 88 94 82 71 63 64 60 51 47 47 50 55 56 55 58 59 59 56 56 55 54 53 53 52 51 49 46 45 43 41 40 39 38 38 39 37 36 32 30 28 26 25 23 21 19 17 15 13 10 9 7 6 5 3 3 2 2
216 103 359 224 222 259 245 259 217 142 210 156 248 218 193 176 189 198 201 199 150 180 125 158 186 235 208 240 242 49 112 149 161 152 143 128 129 131 116 95 84 86 91 73 69 67 74 69 56 51 53 52 54 56 57 57 58 58 58 56 56 54 53 52 52 50 48 47 44 42 41 40 38 36 35 35 34 33 30 28 26 25 23 20 17 16 14 12 10 9 8 6 4 2 1 359 358
226 208 181 243 250 268 344 294 287 212 147 203 216 167 167 177 181 204 206 212 190 200 182 173 202 160 216 236 202 139 147 165 173 146 138 141 134 124 122 116 103 97 94 93 84 77 77 73 76 64 57 54 53 58 57 59 58 59 59 59 57 56 53 51 50 49 48 47 44 43 41 39 37 36 34 34 32 31 31 28 25 25 22 20 17 14 12 12 9 8 7 6 4 2 359 356 354
278 91 214 248 300 251 44 267 282 337 245 213 198 145 142 178 196 210 207 213 191 196 219 198 55 208 224 209 68 140 172 176 162 147 147 150 139 130 125 118 114 108 101 99 94 87 74 77 76 70 62 69 62 54 57 56 58 59 60 61 59 57 55 53 50 47 46 43 42 41 39 37 36 35 34 32 30 29 27 25 22 22 21 21 19 15 13 11 8 6 5 3 2 0 357 354 349
257 243 257 252 63 288 248 304 35 252 226 139 110 130 173 185 209 218 191 209 210 212 63 171 156 162 261 81 167 184 190 171 154 148 150 141 136 131 125 122 119 114 106 112 105 96 84 78 74 66 64 63 69 74 60 51 55 57 58 59 59 58 57 55 53 51 49 45 42 40 38 37 36 33 32 31 29 28 24 22 19 18 17 16 15 13 12 10 8 5 2 359 358 356 353 348 344
246 214 195 345 184 240 186 244 292 231 267 145 135 155 169 223 26 211 214 216 221 68 110 250 181 139 236 189 189 189 172 164 152 145 139 135 131 130 122 123 122 115 114 110 109 106 98 90 83 75 63 69 66 64 65 59 48 53 55 56 55 54 54 54 53 51 47 45 42 39 34 39 37 37 31 32 28 28 22 19 17 16 15 13 11 9 7 5 4 2 360 357 354 350 347 341 335
78 188 245 238 231 249 162 229 182 261 243 157 135 162 181 133 216 198 228 318 54 2 160 189 214 240 4 236 61 32 152 149 145 140 137 134 131 128 136 143 139 132 126 129 121 111 99 97 95 85 79 71 72 73 70 72 56 53 54 56 56 56 53 51 50 46 46 38 36 23 28 28 34 39 27 29 24 26 21 15 14 15 15 11 9 6 3 1 359 357 356 353 350 347 342 333 323
208 280 211 220 254 201 157 214 162 240 90 144 128 180 192 193 168 269 1 258 231 184 204 212 194 30 253 54 65 14 143 140 141 144 147 151 156 160 166 166 157 149 152 146 145 132 123 113 110 104 90 83 79 78 78 72 55 63 73 63 62 56 52 50 46 45 36 40 23 25 22 28 25 22 21 16 18 21 22 8 8 10 12 11 5 3 1 360 356 353 351 349 346 342 338 325 321
227 219 247 239 284 224 170 206 196 27 286 160 182 195 211 213 158 168 175 203 231 153 215 213 252 245 233 95 111 155 143 149 157 158 167 168 177 174 179 177 173 169 165 158 154 148 146 132 128 133 118 104 101 95 87 82 88 68 61 67 58 61 50 51 48 39 37 29 24 29 28 25 19 24 20 11 7 7 16 3 2 3 5 5 360 356 354 353 352 348 348 345 340 337 329 327 333
220 165 233 284 179 354 187 226 221 202 211 73 184 194 218 233 154 158 211 211 197 227 226 216 232 233 198 173 146 160 160 163 170 177 175 178 184 182 180 172 183 167 172 167 163 166 158 151 161 136 129 128 120 114 116 112 100 94 86 80 87 69 67 54 52 47 40 30 28 30 33 26 15 23 22 1 330 338 357 347 353 353 355 357 354 347 350 351 346 343 342 340 331 331 329 335 333
149 239 247 244 186 289 234 216 222 223 77 146 179 192 217 214 193 117 222 238 181 227 219 194 227 233 207 173 158 164 173 174 181 184 185 186 188 185 181 176 179 182 175 176 163 166 171 166 154 144 140 146 154 132 139 124 109 103 88 85 82 85 74 71 63 56 44 37 29 35 32 27 9 21 10 5 321 359 0 348 346 341 349 353 350 342 344 352 340 344 343 339 332 341 338 332 331
122 231 239 232 110 239 195 200 224 192 257 258 191 113 213 222 193 181 214 249 241 234 227 215 216 225 206 163 163 169 178 182 187 191 190 190 192 192 188 183 181 177 174 160 163 172 175 170 163 153 156 152 152 148 149 124 117 112 101 94 78 74 66 64 64 62 51 37 33 30 32 27 17 22 16 7 4 2 358 355 353 356 353 349 350 348 348 346 343 344 343 343 344 337 334 329 327
175 263 10 79 131 244 141 193 114 165 18 208 156 179 214 91 169 218 214 234 254 247 221 219 240 249 162 164 173 174 183 186 190 192 194 191 190 188 185 179 173 169 161 174 177 170 176 174 173 160 162 158 160 155 136 121 161 110 99 76 86 70 68 60 61 51 53 37 34 23 24 30 23 24 17 13 7 5 3 0 356 354 351 349 350 348 349 344 342 341 339 339 335 333 326 323 318
243 184 234 220 226 263 71 190 168 178 177 197 191 221 78 194 224 215 222 230 244 67 65 269 252 268 169 160 161 179 187 192 193 196 194 193 193 191 187 178 172 174 174 182 173 174 172 173 172 171 166 159 159 152 146 139 108 104 80 61 53 70 61 63 57 57 48 47 28 33 21 24 23 19 15 11 8 3 3 0 353 352 351 351 349 344 346 343 340 338 337 332 330 323 320 318 313
265 284 147 220 189 233 107 96 115 209 213 215 60 51 227 167 250 176 231 237 242 91 98 71 33 241 152 163 177 185 189 192 197 198 195 196 191 190 186 181 181 174 180 179 178 173 174 175 172 175 171 170 163 167 157 140 114 98 102 118 89 51 38 54 56 48 49 47 42 29 20 27 20 19 14 10 5 4 1 353 348 346 348 346 344 342 342 341 338 338 334 330 326 323 320 315 310
222 247 184 220 236 249 251 269 227 217 237 45 229 228 238 216 265 33 249 245 238 224 150 141 132 165 180 189 187 191 194 198 199 196 194 197 192 183 179 182 179 176 186 181 178 177 175 173 174 180 170 176 167 170 160 135 131 125 119 111 91 55 68 53 50 51 48 48 46 34 25 20 19 17 14 6 358 2 353 350 342 346 338 341 342 339 343 336 333 332 330 329 328 323 320 316 313
206 273 153 162 239 259 252 255 229 219 242 202 229 244 231 140 343 260 256 257 239 213 177 184 182 191 195 202 195 192 196 198 196 192 191 185 180 181 188 188 181 187 188 177 177 180 173 172 179 180 177 174 169 175 160 149 148 138 132 119 110 129 82 72 61 61 49 46 45 35 31 20 20 12 9 0 356 356 349 346 342 344 339 342 341 339 340 330 326 324 326 324 324 323 319 317 313
325 248 273 268 277 312 171 251 178 187 260 185 239 262 258 93 191 278 157 41 97 154 191 183 202 218 210 206 202 202 201 200 195 190 180 189 187 194 188 188 188 190 181 183 180 177 170 174 180 177 174 170 176 174 156 146 147 144 142 144 134 106 100 100 82 64 57 53 48 38 34 27 17 14 7 358 350 348 347 345 340 338 336 341 338 333 332 323 317 317 320 321 321 319 314 314 311
37 316 278 250 257 248 235 252 256 231 254 185 247 264 320 150 232 247 184 129 142 167 192 199 211 223 219 211 206 206 210 206 194 185 191 187 195 193 188 189 188 185 185 183 180 173 171 180 178 178 177 177 179 162 150 147 145 139 144 146 125 99 89 92 79 73 67 67 61 46 34 28 15 10 11 1 349 341 340 338 332 334 332 334 329 326 322 315 311 312 314 313 309 307 310 308 308
30 292 284 262 268 273 188 229 193 182 239 165 201 261 223 190 231 238 170 137 145 185 204 206 216 222 221 214 212 208 210 199 191 197 204 201 193 190 192 189 181 184 186 180 178 172 177 180 178 178 179 173 179 159 148 144 140 139 137 131 111 100 93 82 80 79 71 81 81 59 43 26 9 16 5 359 340 331 331 326 330 328 328 331 321 316 313 309 311 317 317 315 308 309 302 303 303
266 152 310 294 254 262 132 113 121 197 135 158 221 289 253 199 223 234 117 149 153 202 224 217 218 216 218 215 216 216 209 203 202 207 205 201 195 191 191 185 184 182 177 181 175 180 176 176 175 171 178 174 165 152 148 145 141 129 132 128 99 117 93 97 97 92 86 94 96 83 52 29 16 15 3 345 332 327 323 321 327 325 328 325 314 315 318 319 317 319 321 319 317 310 308 305 304
256 107 237 267 289 245 140 183 148 203 84 193 275 263 282 238 201 221 137 161 184 230 227 228 218 214 217 217 217 217 212 209 211 208 208 204 193 189 193 181 184 184 176 179 181 181 178 175 172 170 176 164 155 145 144 138 136 149 152 133 111 98 111 116 113 110 123 115 74 100 48 21 10 9 353 334 324 323 319 317 321 322 328 318 311 316 313 313 312 317 320 320 314 310 307 304 300
204 263 229 171 231 249 131 154 185 215 117 209 214 264 265 279 252 119 117 171 209 239 243 235 223 218 216 217 219 218 216 210 213 213 211 205 194 191 191 186 183 186 184 178 176 179 182 177 176 172 172 162 158 146 148 147 156 157 146 129 135 125 140 138 132 127 128 105 92 354 66 3 354 345 333 332 316 318 311 310 312 320 320 312 312 307 305 304 314 310 310 309 312 310 308 304 300
191 222 272 264 199 263 299 158 201 347 127 193 209 259 297 287 110 98 127 164 198 242 250 243 233 226 221 219 217 215 211 210 211 214 213 203 202 195 193 189 186 187 182 175 178 177 179 175 180 179 175 166 159 154 154 160 160 155 155 146 134 158 169 161 141 141 162 173 211 278 10 321 320 315 315 316 306 303 304 305 308 312 316 308 299 300 295 299 307 304 303 306 301 304 304 300 301
220 146 256 261 263 293 280 120 155 144 213 224 217 241 248 265 264 164 163 180 195 237 253 250 238 228 217 219 215 208 209 211 211 210 212 201 198 196 194 193 186 182 181 178 181 177 180 175 181 182 172 169 162 161 167 166 163 158 163 152 148 161 167 189 170 173 214 218 231 238 263 281 282 295 292 298 297 298 297 299 302 305 305 299 294 294 294 297 298 304 306 305 305 303 301 305 303
261 204 242 255 214 221 263 275 127 166 146 246 232 232 259 265 271 272 234 176 218 250 255 259 252 230 222 219 217 210 210 216 219 213 205 197 192 189 193 190 184 181 181 181 177 178 179 176 181 176 172 168 166 165 162 161 156 162 146 158 166 183 183 176 197 222 222 238 240 262 267 261 263 273 279 281 291 300 300 297 294 301 299 293 292 292 296 297 301 305 302 303 301 298 300 300 302
264 256 265 274 274 255 250 201 108 218 213 236 238 240 255 263 270 272 269 179 225 247 257 261 256 242 234 228 214 205 212 225 224 212 199 189 187 184 189 186 181 180 180 183 180 180 183 180 182 177 179 175 170 170 170 175 176 175 176 167 178 183 178 182 199 222 232 239 240 258 257 252 261 268 279 284 285 292 295 292 292 290 284 282 285 288 294 306 308 308 305 306 305 301 293 297 306
29 169 236 253 256 266 270 133 113 160 259 247 252 253 259 265 268 273 272 214 245 246 253 256 254 240 235 230 214 205 214 227 209 200 187 183 181 183 184 180 181 180 184 184 184 186 189 184 179 182 179 178 178 176 181 181 180 178 177 196 187 163 178 176 215 215 220 233 238 258 258 253 253 266 278 281 284 286 280 283 283 280 275 276 275 279 288 289 293 292 298 298 299 302 302 303 309
236 255 246 261 220 260 271 92 125 169 223 269 240 259 259 262 266 267 271 227 245 257 256 260 260 248 241 228 215 206 221 214 174 189 189 176 182 184 183 183 181 184 191 187 189 188 189 185 185 182 179 181 189 186 177 182 186 188 185 172 178 175 187 206 213 200 212 225 246 249 254 254 253 267 280 281 280 276 280 282 280 279 280 278 279 279 277 280 285 291 299 301 293 299 297 304 306
193 237 247 274 261 280 277 66 129 156 201 264 270 277 271 266 263 261 258 253 244 248 250 260 266 269 257 225 212 213 205 216 202 208 190 190 185 185 186 190 192 193 186 188 188 187 188 186 188 185 182 182 186 180 173 181 169 152 171 149 179 180 223 281 283 276 265 250 246 247 252 256 259 268 273 275 276 272 270 275 277 282 278 279 282 283 283 287 294 297 301 301 309 294 286 289 293
208 197 224 237 261 330 280 111 98 179 221 298 309 292 278 265 254 253 255 257 262 254 256 256 257 257 258 255 206 193 217 218 209 196 196 192 189 187 189 192 191 188 186 187 189 190 187 188 189 186 182 183 179 175 173 159 152 138 143 127 126 265 283 266 264 261 251 243 243 242 244 249 258 267 269 267 263 268 272 275 278 274 277 278 280 286 288 287 292 297 299 301 300 303 301 298 296
209 224 230 253 237 228 227 308 299 199 238 278 281 267 259 232 242 254 244 6 278 269 261 262 261 251 254 82 188 208 227 213 201 194 195 192 192 195 195 190 183 189 190 189 189 188 185 188 186 183 180 182 178 169 170 162 149 156 156 154 202 232 248 249 243 237 225 224 231 227 230 235 254 263 267 264 268 269 271 268 268 272 274 276 277 278 284 287 290 290 297 295 295 297 300 298 294
214 225 230 241 261 261 200 21 338 292 279 144 342 326 285 165 193 230 265 286 262 232 224 241 252 258 229 234 226 223 231 215 201 195 194 193 196 194 191 189 190 194 196 194 187 188 181 185 183 180 179 180 177 171 172 171 175 182 180 191 202 209 219 207 216 223 206 211 222 220 234 237 250 260 262 265 263 266 267 267 266 269 271 274 273 279 282 284 284 289 288 287 284 278 284 295 290
219 245 205 234 245 270 21 260 70 264 265 77 306 349 291 141 194 181 203 233 257 238 221 246 223 255 210 214 198 217 217 205 211 210 194 193 194 190 193 193 196 195 200 184 181 186 186 184 178 179 180 178 175 173 173 174 178 188 197 206 218 221 227 223 228 239 240 249 258 258 262 253 256 266 268 265 269 269 269 270 268 268 272 272 276 277 280 284 285 286 286 277 278 282 278 280 283
238 62 113 135 188 207 208 210 229 269 34 273 175 233 276 279 218 168 191 210 241 267 270 271 266 231 244 207 200 214 207 200 195 204 201 197 191 191 197 198 194 199 188 179 180 185 187 184 177 181 180 178 172 173 175 180 184 189 193 205 215 225 228 236 214 239 256 270 268 277 289 287 282 269 276 277 278 274 273 272 270 270 272 275 278 280 282 286 288 281 274 274 275 271 270 269 283
271 72 14 107 122 168 162 210 255 295 336 284 184 202 271 259 183 196 185 217 228 251 253 257 261 241 222 232 212 209 205 200 197 196 199 197 195 198 198 196 198 190 183 178 182 184 182 181 179 180 182 178 176 177 177 183 188 188 193 199 211 221 226 234 231 234 256 259 271 279 279 286 282 272 269 273 269 267 266 267 271 270 272 278 276 280 281 278 276 275 273 271 266 269 265 269 273
103 129 88 86 85 72 184 226 253 264 289 257 189 175 244 278 146 166 305 201 230 236 242 245 249 254 224 224 210 204 197 199 204 208 199 198 199 197 197 194 186 187 180 177 179 175 179 176 181 181 184 181 177 179 180 183 188 188 196 201 206 210 212 218 219 229 232 247 264 270 274 274 272 274 267 260 261 259 264 268 272 274 276 276 275 276 279 274 271 268 265 264 264 263 263 260 260
126 159 113 92 82 131 118 87 264 287 243 243 205 182 206 279 182 158 155 193 201 222 235 251 262 264 244 209 202 189 192 190 191 197 197 198 194 192 183 190 186 179 169 176 180 181 179 180 183 185 185 180 177 181 182 185 186 191 198 200 201 208 209 215 221 222 224 233 249 260 264 272 277 278 278 271 263 266 267 272 275 281 282 277 274 276 274 275 274 272 271 267 262 258 260 262 263
161 151 171 193 193 145 172 192 185 235 264 116 199 193 197 235 254 157 163 136 190 199 222 231 239 239 233 191 196 189 182 171 178 183 186 187 183 187 184 191 187 183 176 185 184 180 181 183 182 184 183 182 178 180 182 185 185 192 198 198 202 205 204 206 218 227 227 239 254 269 273 278 278 277 275 273 271 274 280 282 284 285 283 282 280 280 278 276 277 276 275 270 267 262 260 261 261
207 158 155 216 260 9 240 155 220 197 248 128 114 138 255 234 245 135 190 201 222 235 225 215 223 234 222 192 183 161 159 153 185 179 177 186 188 187 190 192 185 183 186 186 185 181 182 184 184 183 184 181 179 178 183 186 186 191 194 197 201 200 203 208 217 226 225 234 243 254 263 269 274 272 268 276 279 283 288 286 289 291 293 289 287 285 281 279 280 278 275 272 268 266 266 265 264
186 188 182 192 252 222 260 245 186 292 236 134 112 148 248 269 284 228 219 210 216 214 232 245 234 226 220 169 156 148 166 189 192 183 187 191 189 189 188 188 188 186 185 185 183 182 183 185 185 187 183 178 176 179 183 184 190 190 190 191 194 194 197 203 213 217 220 228 236 248 252 259 269 270 277 277 288 291 284 282 284 285 283 284 284 282 281 281 279 278 277 276 273 271 269 267 266
197 178 177 221 187 201 248 258 260 272 301 134 233 107 242 13 208 188 210 216 209 205 219 234 255 283 33 36 40 186 197 204 194 192 199 195 191 187 185 188 190 189 186 183 184 185 182 186 185 186 178 177 177 179 180 186 187 187 185 188 187 186 191 196 207 213 217 225 237 245 254 258 260 268 274 283 290 286 286 289 289 290 290 289 288 285 284 283 281 279 277 275 275 271 269 267 266
159 184 27 276 228 188 247 310 299 316 320 285 156 221 240 225 88 189 59 54 225 215 225 211 232 239 207 236 223 215 211 201 196 209 209 205 193 187 188 191 194 190 188 186 186 183 185 189 185 186 180 173 176 177 182 183 182 180 181 180 181 181 185 192 205 209 219 223 237 247 255 256 259 266 271 275 277 279 284 288 288 287 288 287 286 285 284 282 282 280 277 275 274 272 272 270 269
160 143 207 203 14 199 258 59 113 83 198 264 177 261 258 259 244 152 194 166 209 208 224 212 223 227 186 235 236 223 220 205 201 211 211 199 191 196 196 193 193 192 190 193 190 187 187 181 179 182 178 172 177 179 177 178 175 171 175 174 175 180 188 197 203 209 218 232 240 245 249 254 262 262 264 270 272 273 278 285 288 287 285 286 283 282 281 281 280 278 276 277 275 273 272 272 270
111 221 203 83 0 355 178 249 152 225 248 271 354 270 288 281 291 124 163 201 191 216 222 213 223 213 204 232 233 220 221 219 216 219 217 204 199 200 199 199 198 197 197 194 190 183 183 182 179 177 175 175 177 173 174 173 170 170 169 172 177 180 186 195 206 215 223 230 234 239 246 250 253 261 267 266 268 275 281 286 284 285 285 282 280 281 281 279 277 276 276 275 273 274 275 276 273
317 355 332 193 190 191 169 53 248 241 238 270 263 274 272 258 257 130 170 199 214 223 222 215 228 222 223 233 238 231 231 228 220 218 212 207 205 204 200 201 198 199 196 193 185 175 178 181 182 181 180 176 168 166 169 166 165 164 167 171 173 175 183 192 203 212 224 232 234 240 245 255 262 261 263 268 275 281 286 289 287 286 287 284 280 280 280 278 277 279 280 277 276 277 278 275 273
113 248 218 350 321 199 164 204 246 225 266 282 274 284 269 284 196 164 204 191 204 210 211 214 216 215 214 223 224 217 219 220 216 211 212 210 208 204 200 197 194 194 190 185 178 175 184 181 175 178 171 165 163 166 164 162 163 162 160 158 167 172 179 192 202 210 223 230 237 244 251 256 257 267 269 273 278 285 292 291 288 289 288 286 283 282 282 280 279 275 278 280 282 280 277 273 273
192 213 204 170 210 355 339 338 202 220 246 234 270 278 272 4 125 137 207 186 203 194 208 217 217 218 220 222 218 222 227 221 221 218 215 213 207 201 199 195 191 187 184 176 178 182 181 176 176 175 169 166 167 166 164 163 159 163 160 166 170 170 182 190 202 216 227 235 240 245 250 257 272 271 276 284 288 292 292 289 292 288 287 288 287 287 284 281 278 276 276 276 278 277 277 277 277
188 180 192 187 160 189 193 247 117 232 212 236 219 254 269 270 98 94 114 185 188 199 205 210 207 219 220 225 224 223 226 226 224 222 217 211 202 194 188 183 180 175 180 182 181 177 180 180 177 170 169 169 167 165 166 159 159 161 163 166 167 169 178 193 204 212 226 229 238 245 250 267 269 274 279 289 292 295 291 295 294 290 288 286 286 285 284 282 281 282 281 280 277 275 277 278 278